Advertisements
 
 

Fall Movielogue, 2009

August 24 – January 10

# Title (Production Year) Rating% Date Watched — Review links, if any (*Title* denotes top ten movie of period)

1303 Solaris (1972) 99% 8/24/2009
1304 The Great Buck Howard (2008) 89% 8/25/2009
1305 Trouble the Water (2008) 69% 8/27/2009
1306 We Are Wizards (2008) 35% 8/28/2009
1307 Guru (2007) 80% 8/31/2009
1308 Killer’s Kiss (1955) 45% 9/1/2009
1309 Osmosis Jones (2001) 71% 9/3/2009
1310 Spartacus (1960) 96% 9/4/2009
1311 Blazing Saddles (1974) 52% 9/5/2009
1312 Jesus of Montreal (1989) 85% 9/6/2009 — Post
1313 Tobacco Road (1941) 44% 9/8/2009
1314 Beavis and Butt-head Do America (1996) 53% 9/9/2009
1315 The Earrings of Madame de… (1953) 97% 9/9/2009
1316 9 (2009) 77% 9/11/2009 — Post
1317 Key Largo (1948) 95% 9/12/2009
1318 *The Last Temptation of Christ* (1988) 95% 9/13/2009 — Post
1319 Resident Evil: Apocalypse (2004) 54% 9/13/2009
1320 The Adventures of Baron Munchausen (1988) 94% 9/15/2009
1321 Cloudy with a Chance of Meatballs (2009) 89% 9/22/2009
1322 Young Mr. Lincoln (1939) 81% 9/23/2009
1323 The Informant! (2009) 91% 9/24/2009
1324 Mimic (1997) 59% 9/25/2009
1325 Au hasard Balthazar (1966) 91% 9/30/2009
1326 Zombieland (2009) 87% 10/2/2009
1327 Elmer Gantry (1960) 94% 10/4/2009
1328 A Man for All Seasons (1966) 91% 10/7/2009 — Post
1329 Last Year at Marienbad (1961) 87% 10/8/2009
1330 Dante’s Inferno (2007) 66% 10/9/2009
1331 Toy Story (1995) 96% 10/9/2009
1332 *Toy Story 2* (1999) 97% 10/9/2009
1333 To Be or Not To Be (1942) 76% 10/11/2009
1334 Silent Light (2007) 67% 10/11/2009
1335 Bedtime Stories (2008) 44% 10/11/2009
1336 Inside Deep Throat (2005) 83% 10/11/2009
1337 MirrorMask (2005) 89% 10/13/2009
1338 The Firemen’s Ball (1967) 95% 10/13/2009
1339 Horsemen (2009) 21% 10/15/2009
1340 Flatliners (1990) 84% 10/16/2009
1341 The Red Balloon (1956) 96% 10/17/2009
1342 Who’s Afraid of Virginia Woolf? (1966) 87% 10/18/2009
1343 Random Harvest (1942) 67% 10/20/2009
1344 Where the Wild Things Are (2009) 82% 10/20/2009
1345 *The Browning Version* (1951) 100% 10/22/2009
1346 *A Serious Man* (2009) 100% 10/23/2009
1347 Future War (1997) 0% 10/24/2009
1348 Zombiemania (2008) 66% 10/25/2009
1349 Christmas in July (1940) 91% 10/26/2009
1350 Great Expectations (1946) 95% 10/27/2009
1351 Daisy Miller (1974) 77% 10/28/2009
1352 Zombie Nightmare (1986) 0% 10/31/2009
1353 The Mummy (1932) 70% 10/31/2009
1354 Abbott and Costello Meet the Mummy (1955) 61% 10/31/2009
1355 Carrie (1976) 83% 10/31/2009
1356 Matilda (1996) 76% 11/1/2009
1357 Cape Fear (1991) 96% 11/2/2009
1358 Eve’s Bayou (1997) 96% 11/4/2009
1359 The Men Who Stare at Goats (2009) 51% 11/7/2009
1360 Hannah and Her Sisters (1986) 83% 11/8/2009
1361 The Adventures of Milo and Otis (1986) 40% 11/10/2009
1362 Follow That Bird (1985) 83% 11/10/2009
1363 The Heart Is a Lonely Hunter (1968) 90% 11/13/2009
1364 The Ballad of the Sad Cafe (1991) 78% 11/13/2009
1365 Hangover Square (1945) 33% 11/13/2009
1366 First Spaceship on Venus (1960) 0% 11/13/2009
1367 *Inglorious Basterds* (2009) 97% 11/14/2009
1368 *Spirited Away* (2001) 98% 11/17/2009
1369 Vernon, Florida (1981) 86% 11/20/2009
1370 Drag Me to Hell (2009) 82% 11/24/2009
1371 An Education (2009) 93% 11/25/2009
1372 The Messenger (2009) 77% 11/29/2009
1373 The Road (2009) 95% 11/29/2009
1374 *Fantastic Mr. Fox* (2009) 96% 12/7/2009
1375 The Princess and the Frog (2009) 74% 12/11/2009
1376 Enemy at the Gates (2001) 90% 12/13/2009
1377 The Box (2009) 83% 12/16/2009
1378 Avatar (2009) 94% 12/18/2009 — Post
1379 Kill Bill: Vol. 1 (2003) 93% 12/19/2009
1380 *Kill Bill: Vol. 2* (2004) 97% 12/20/2009
1381 Sherlock Holmes (2009) 84% 12/26/2009
1382 *The Fog of War* (2003) 96% 12/28/2009
1383 *Almost Famous* (2000) 97% 12/30/2009
1384 Eyes Wide Shut (1999) 93% 12/31/2009
1385 Charley’s Aunt (1941) 60% 1/6/2010
1386 Up in the Air (2009) 96% 1/7/2010

Advertisements

~ by Jared on August 24, 2009.

Leave a Reply

Fill in your details below or click an icon to log in:

WordPress.com Logo

You are commenting using your WordPress.com account. Log Out / Change )

Twitter picture

You are commenting using your Twitter account. Log Out / Change )

Facebook photo

You are commenting using your Facebook account. Log Out / Change )

Google+ photo

You are commenting using your Google+ account. Log Out / Change )

Connecting to %s

 
%d bloggers like this: